カタログに戻る

FENGYUN 1C DEB

運用中PO
NORAD 29934·DEBRIS·🇨🇳 China

打ち上げ May 10, 1999 から Taiyuan Satellite Launch Center

Loading…

次のパス (今後24時間)

TLE

最新Source: Space-Track

元期: Sep 14, 2026, 11:06 UTC

1 29934U 99025JG  26257.46283110  .00003644  00000-0  63020-3 0  9990
2 29934  98.8722 331.3693 0099109 122.9969 238.0805 14.65881052 38062

AllMySatでFENGYUN 1C DEBをリアルタイム追跡

Download on the App Store